Terminal Aerodrome Forecast
Issued by NWS Cleveland, OH

Home | Current Version | Previous Version | Text Only | Print | Product List | Glossary Off
Versions: 1 2 3 4 5 6 7 8 9 10 11 12 13 14 15 16 17 18 19 20 21 22 23 24

000
FTUS41 KCLE 291120
TAFTOL
TAF
KTOL 291120Z 2912/3012 VRB04KT 6SM BR SCT004 OVC025
      TEMPO 2912/2914 3SM BR BKN004 OVC025
     FM291400 04008KT 5SM BR VCSH SCT006 OVC015
     FM291900 06012G20KT 4SM -RA BR OVC006=

USA.gov is the U.S. government's official web portal to all federal, state and local government web resources and services.